STARLINK-32564, 61924

Orbit data source: Space-Track

STARLINK-32564, 61924 is a payload satellite owned by SpaceX/Seattle (US) in LEO that was launched on Mon, 11 Nov 2024 UTC via an FALCON 9 launch vehicle from the Air Force Eastern Test Range (AFETR). Payload-class satellites include a variety of spacecraft equipped with specific instruments for various scientific and technological missions. These include communications satellites like Starlink; space stations such as the ISS; scientific satellites like the Hubble; Earth observation satellites from companies like Planet Labs, Umbra, and HawkEye 360; GPS; miniature CubeSats for education and research; and military/defense satellites.

Loading next visibility...
Identifier
61924, 2024-207N
Orbit
LEO
Country
Flag of USUS
Related business
Manufacturer
SpaceX/Seattle
Mission
Operational Commercial Communications
Bus & Motor
STARLINK V2M, Unknown motor
Mass
730 kg wet, ~700 kg dry
Launch date (UTC)
2024-11-11 (2 years ago)
Launch vehicle
FALCON 9
Launch site
Air Force Eastern Test Range (AFETR)
Object type
Payload
Rocket body
Debris
Shape & HBR
Box + 2 Pan, 17.7 m
Radar Cross Section
33.884 m², Large (>1 m²)

Expand to show TLE details & history
Last TLE update: 1 week ago

TLE from 1 week ago
0 STARLINK-32564
1 61924U 24207N   26152.42257953  .00024218  00000-0  88596-3 0  9996
2 61924  42.9993 172.6886 0001421 282.6942  77.3751 15.27608043 87482
Epoch: 2026-06-01T10:08Z
TLE epoch observation values (Epoch: 2026-06-01T10:08:30.871Z)
Latitude
Longitude
130.64985°
Altitude
482.528 km
Speed
7.626 km/s
True Right ascension
11h 30m 45s
True Declination
0° 00' 00"
Sunlit
Object was in daylight at epoch
Visualization orbit readout
Latitude
Unknown
Longitude
Unknown
Altitude
Unknown
Speed
Unknown
Apparent Right ascension
Unknown
Apparent Declination
Unknown
Sunlit
N/A
Visualization observer readout
Local Sidereal Time
13:10:37
Azimuth
Unknown
Elevation
Unknown
Doppler factor
Unknown
Orbital elements
Apogee altitude
485.886 km
Perigee altitude
483.935 km
Semi-major axis
6,863.047 km
Eccentricity
0.00014
Inclination
42.9993°
RAAN
172.6886°
Arg. of periapsis
282.6942°
True anomaly
77.39099°
Mean anomaly
77.3751°
Eccentric anomaly
77.38305°
Mean motion
3.8174 °/min
Orbital period
94.31 mins
BSTAR
0.00088596
Loading maneuver chart data...
Computing Atmospheric mass density...
Loading historical data...
Loading historical data...
Loading historical data...
Loading historical data...
Loading historical data...
Loading historical data...
Loading historical data...

Documentation

Showing up to 5 results
|